Home > Weather > Flint > Past weeks

Flag for USA Past Weather in Flint, Michigan, USA — Yesterday and Last 2 Weeks

Now
87 °F

Sunny.


Feels Like: 86 °F
Forecast: 64 / 87 °F
Wind: 12 mph from South

Location: Bishop International Airport

Current Time: May 25, 2016 at 6:48:20 PM

Latest Report: May 25, 2016 at 5:53 PM


Visibility: 10 mi

Pressure: 29.96 "Hg

Humidity: 37%

Dew Point: 58 °F

Location of FlintLocation

Past Weather in Flint — Graph

°F

Flint Temperature Yesterday

Maximum temperature yesterday: 87 °F (at 2:53 PM)
Minimum temperature yesterday: 47 °F (at 5:53 AM)
Average temperature yesterday: 71 °F

High & Low Weather Summary for the Past Weeks

 TemperatureHumidityPressure
High88 °F (May 25, 3:53 PM)87% (May 12, 7:53 PM)30.28 "Hg (May 12, 7:53 PM)
Low37 °F (May 15, 4:53 AM)14% (May 23, 5:53 PM)29.63 "Hg (May 14, 4:00 AM)
Average60 °F54%30.05 "Hg
* Reported May 10 4:53 PM — May 25 4:53 PM, Flint, Weather by CustomWeather, © 2016

Note: Actual official high and low records may vary slightly from our data, if they occured in-between our weather recording intervals... More about our weather records

Advertising

Flint Weather History for the Previous 24 Hours

Scroll right to see more
 ConditionsComfort  
Time TempWeatherWind HumidityBarometerVisibility
4:53 PM
Wed, May 25
87 °FScattered clouds.16 mph39%29.98 "Hg10 mi
3:53 PM88 °FScattered clouds.8 mph34%29.99 "Hg10 mi
2:53 PM85 °FPassing clouds.9 mph39%30.00 "Hg10 mi
1:53 PM87 °FPassing clouds.5 mph37%30.01 "Hg10 mi
12:53 PM86 °FSunny.No wind40%30.03 "Hg10 mi
11:53 AM84 °FSunny.9 mph41%30.04 "Hg10 mi
10:53 AM83 °FPartly sunny.10 mph44%30.06 "Hg10 mi
9:53 AM79 °FPassing clouds.10 mph48%30.05 "Hg10 mi
8:53 AM76 °FSunny.7 mph50%30.02 "Hg8 mi
7:53 AM71 °FSunny.8 mph55%30.02 "Hg10 mi
6:53 AM66 °FClear.5 mph61%30.02 "Hg10 mi
5:53 AM62 °FClear.No wind67%30.02 "Hg10 mi
4:53 AM62 °FClear.No wind67%30.01 "Hg10 mi
3:53 AM66 °FClear.No wind56%30.00 "Hg10 mi
2:53 AM70 °FPassing clouds.6 mph47%29.98 "Hg10 mi
1:53 AM71 °FPassing clouds.7 mph47%29.98 "Hg10 mi
12:53 AM70 °FClear.6 mph49%29.98 "Hg10 mi
11:53 PM
Tue, May 24
71 °FClear.7 mph49%29.99 "Hg10 mi
10:53 PM72 °FClear.6 mph48%29.98 "Hg10 mi
9:53 PM74 °FSunny.5 mph45%29.97 "Hg10 mi
8:53 PM80 °FSunny.3 mph32%29.96 "Hg10 mi
7:53 PM82 °FSunny.8 mph33%29.96 "Hg10 mi
6:53 PM85 °FSunny.12 mph27%29.96 "Hg10 mi
Weather by CustomWeather, © 2016

See weather overviewHow to use our weather pages